• Join FlightAware (Why Join?)
  • Login
  • US Flag 
07:12AM EDT


 

Airport Tracker/Info


-or-


 

Live Flight TrackerFlight Track Log ✈ SWA3943 ✈ 15-Apr-2013 ✈ KMCO - KCMH

Flight Track Log - Related Links

Times and Time Zones

All times are in EDT time to prevent confusion due to time zone crossing. See the SWA3943 flight status page for this flight to view local times or setup timezone preferences in your user account.

Time Position Orientation Groundspeed Altitude Reporting Facility
EDT Latitude Longitude Course Direction KTS MPH feet Rate Location/Type
06:20PM 28.4333 -81.3000 24° Northeast 162 186 900  Level Orlando TRACON
06:21PM 28.5000 -81.2667 24° Northeast 223 257 3,300 2,160 Climbing Orlando TRACON
06:22PM 28.5667 -81.2333 24° Northeast 279 321 5,700 3,240 Climbing Orlando TRACON
06:23PM 28.6500 -81.2333 360° North 274 315 9,800 2,820 Climbing Orlando TRACON
06:25PM 28.7878 -81.3692 319° Northwest 319 367 14,900 2,460 Climbing Jacksonville Center
06:26PM 28.8597 -81.4511 315° West 345 397 17,800 2,700 Climbing Jacksonville Center
06:27PM 28.9461 -81.5186 326° Northwest 363 418 20,300 2,400 Climbing Jacksonville Center
06:28PM 29.0569 -81.5386 351° North 383 441 22,700 2,340 Climbing Jacksonville Center
06:29PM 29.1697 -81.5536 353° North 389 448 25,000 2,220 Climbing Jacksonville Center
06:30PM 29.2972 -81.5733 352° North 409 471 27,200 2,040 Climbing Jacksonville Center
06:31PM 29.4164 -81.5861 355° North 423 487 29,100 1,800 Climbing Jacksonville Center
06:32PM 29.5375 -81.6011 354° North 428 493 30,800 1,800 Climbing Jacksonville Center
06:33PM 29.6631 -81.6186 353° North 438 504 32,700 1,620 Climbing Jacksonville Center
06:34PM 29.7842 -81.6339 354° North 443 510 34,100 1,560 Climbing Jacksonville Center
06:35PM 29.9075 -81.6489 354° North 443 510 35,900 1,740 Climbing Jacksonville Center
06:36PM 30.0247 -81.6642 354° North 443 510 37,600 1,200 Climbing Jacksonville Center
06:37PM 30.1417 -81.6797 353° North 432 497 38,400 660 Climbing Jacksonville Center
06:38PM 30.2608 -81.6900 356° North 425 489 39,000 300 Climbing Jacksonville Center
06:39PM 30.3842 -81.7031 355° North 430 495 39,000  Level Jacksonville Center
06:40PM 30.4886 -81.7211 352° North 430 495 39,000  Level Jacksonville Center
06:41PM 30.6142 -81.7411 352° North 430 495 39,000  Level Jacksonville Center
06:42PM 30.7311 -81.7567 353° North 430 495 39,000  Level Jacksonville Center
06:43PM 30.8483 -81.7747 352° North 423 487 39,000  Level Jacksonville Center
06:44PM 30.9653 -81.7903 353° North 428 493 39,000  Level Jacksonville Center
06:45PM 31.0803 -81.8058 353° North 428 493 39,000  Level Jacksonville Center
06:46PM 31.1994 -81.8214 354° North 428 493 39,000  Level Jacksonville Center
06:47PM 31.3144 -81.8372 353° North 428 493 39,000  Level Jacksonville Center
06:48PM 31.4419 -81.8503 355° North 417 480 39,000  Level Jacksonville Center
06:49PM 31.5547 -81.8661 353° North 412 474 39,000  Level Jacksonville Center
06:51PM 31.7572 -81.8944 353° North 425 489 39,000  Level Atlanta Center
06:52PM 31.8722 -81.9089 354° North 420 483 39,000  Level Atlanta Center
06:53PM 31.9853 -81.9256 353° North 415 478 39,000  Level Atlanta Center
06:54PM 32.0981 -81.9403 354° North 410 472 39,000  Level Atlanta Center
06:55PM 32.2175 -81.9569 353° North 415 478 39,000  Level Atlanta Center
06:56PM 32.3200 -81.9694 354° North 415 478 39,000  Level Atlanta Center
06:57PM 32.4350 -81.9864 353° North 415 478 39,000  Level Atlanta Center
06:58PM 32.5542 -82.0008 354° North 420 483 39,000  Level Atlanta Center
06:59PM 32.6672 -82.0181 353° North 420 483 39,000  Level Atlanta Center
07:00PM 32.7864 -82.0350 353° North 420 483 39,000  Level Atlanta Center
07:01PM 32.9056 -82.0497 354° North 425 489 39,000  Level Atlanta Center
07:02PM 33.0208 -82.0667 353° North 425 489 39,000  Level Atlanta Center
07:03PM 33.1378 -82.0814 354° North 425 489 39,000  Level Atlanta Center
07:04PM 33.2550 -82.0986 353° North 425 489 39,000  Level Atlanta Center
07:05PM 33.3722 -82.1161 353° North 425 489 39,000  Level Atlanta Center
07:06PM 33.4892 -82.1308 354° North 425 489 39,000  Level Atlanta Center
07:07PM 33.6211 -82.1478 354° North 432 497 39,000  Level Atlanta Center
07:08PM 33.7422 -82.1528 358° North 432 497 39,000  Level Atlanta Center
07:09PM 33.8672 -82.1325 North 432 497 39,000  Level Atlanta Center
07:10PM 33.9900 -82.1122 North 439 505 39,000  Level Atlanta Center
07:11PM 34.1128 -82.0894 North 445 512 39,000  Level Atlanta Center
07:12PM 34.2356 -82.0714 North 445 512 39,000  Level Atlanta Center
07:13PM 34.3561 -82.0458 10° North 445 512 39,000  Level Atlanta Center
07:14PM 34.4792 -82.0278 North 440 506 39,000  Level Atlanta Center
07:15PM 34.5914 -82.0075 North 449 517 39,000  Level Atlanta Center
07:16PM 34.7119 -81.9844 North 444 511 39,000  Level Atlanta Center
07:17PM 34.8328 -81.9611 North 444 511 39,000  Level Atlanta Center
07:18PM 34.9575 -81.9456 North 444 511 39,000  Level Atlanta Center
07:19PM 35.0806 -81.9297 North 439 505 39,000  Level Atlanta Center
07:20PM 35.2036 -81.9239 North 445 512 39,000  Level Atlanta Center
07:21PM 35.3369 -81.9181 North 438 504 39,000  Level Atlanta Center
07:22PM 35.4578 -81.9150 North 438 504 39,000  Level Atlanta Center
07:23PM 35.5786 -81.9067 North 438 504 39,000  Level Atlanta Center
07:24PM 35.7017 -81.9008 North 438 504 39,000  Level Atlanta Center
07:25PM 35.8225 -81.8950 North 438 504 39,000  Level Atlanta Center
07:26PM 35.9436 -81.8894 North 432 497 39,000  Level Atlanta Center
07:27PM 36.0478 -81.8842 North 432 497 39,000  Level Atlanta Center
07:28PM 36.1706 -81.8781 North 432 497 39,000  Level Atlanta Center
07:29PM 36.2936 -81.8697 North 438 504 39,000  Level Atlanta Center
07:30PM 36.4164 -81.8639 North 438 504 39,000  Level Atlanta Center
07:31PM 36.5478 -81.8550 North 438 504 39,000  Level Atlanta Center
07:33PM 36.7431 -81.8475 North 439 505 39,000  Level Indianapolis Center
07:34PM 36.8631 -81.8442 North 433 498 39,000  Level Indianapolis Center
07:35PM 36.9750 -81.8783 346° North 417 480 39,000  Level Indianapolis Center
07:36PM 37.0892 -81.9114 347° North 420 483 39,000 -540 Level Indianapolis Center
07:37PM 37.2031 -81.9444 347° North 420 483 38,000 -540 Descending Indianapolis Center
07:38PM 37.3386 -81.9858 346° North 427 491 38,000  Level Indianapolis Center
07:39PM 37.4528 -82.0189 347° North 424 488 38,000 -420 Level Indianapolis Center
07:40PM 37.5694 -82.0511 348° North 426 490 37,200 -1,080 Descending Indianapolis Center
07:41PM 37.6908 -82.0550 359° North 433 498 35,800 -1,620 Descending Indianapolis Center
07:42PM 37.8153 -82.0589 359° North 444 511 33,900 -1,980 Descending Indianapolis Center
07:43PM 37.9514 -82.0628 359° North 453 521 31,800 -1,440 Descending Indianapolis Center
07:44PM 38.0764 -82.0650 359° North 448 516 31,000 -420 Descending Indianapolis Center
07:45PM 38.1994 -82.0692 358° North 442 509 31,000  Level Indianapolis Center
07:46PM 38.3222 -82.0733 358° North 439 505 31,000  Level Indianapolis Center
07:47PM 38.4461 -82.0764 359° North 442 509 31,000 -300 Level Indianapolis Center
07:48PM 38.5703 -82.0800 359° North 442 509 30,500 -1,380 Descending Indianapolis Center
07:49PM 38.6908 -82.0836 359° North 430 495 28,200 -2,280 Descending Indianapolis Center
07:50PM 38.8072 -82.0858 359° North 417 480 25,900 -2,100 Descending Indianapolis Center
07:51PM 38.9389 -82.0978 356° North 393 452 24,000 -1,800 Descending Indianapolis Center
07:52PM 39.0389 -82.1394 342° North 379 436 22,300 -1,860 Descending Indianapolis Center
07:53PM 39.1369 -82.1789 343° North 369 425 20,200 -2,040 Descending Indianapolis Center
07:54PM 39.2328 -82.2161 343° North 360 414 18,200 -2,040 Descending Indianapolis Center
07:56PM 39.3458 -82.2619 343° North 341 392 15,700 -1,980 Descending Indianapolis Center
07:56PM 39.4142 -82.2886 343° North 339 390 14,200 -2,100 Descending Indianapolis Center
07:57PM 39.4681 -82.3125 341° North 332 382 13,000 -2,040 Descending Indianapolis Center
07:57PM 39.4964 -82.3317 332° Northwest 329 379 12,100 -1,920 Descending Indianapolis Center
07:58PM 39.5317 -82.3650 324° Northwest 316 364 11,300 -1,140 Descending Indianapolis Center
07:58PM 39.5786 -82.4036 328° Northwest 305 351 11,000 -300 Descending Indianapolis Center
07:59PM 39.6011 -82.4239 325° Northwest 278 320 11,000 -1,020 Level Indianapolis Center
07:59PM 39.6417 -82.4569 328° Northwest 272 313 10,000 -1,440 Descending Indianapolis Center
08:00PM 39.6686 -82.4825 324° Northwest 265 305 9,400 -1,380 Descending Indianapolis Center
08:01PM 39.7031 -82.5108 328° Northwest 265 305 8,600 -1,440 Descending Indianapolis Center
08:01PM 39.7300 -82.5350 325° Northwest 264 304 8,000 -1,560 Descending Indianapolis Center
08:02PM 39.7650 -82.5636 328° Northwest 265 305 7,000 -1,740 Descending Indianapolis Center
08:02PM 39.8017 -82.5944 327° Northwest 265 305 6,100 -1,680 Descending Indianapolis Center
08:03PM 39.8278 -82.6172 326° Northwest 268 308 5,300 -1,680 Descending Indianapolis Center
08:03PM 39.8650 -82.6500 326° Northwest 279 321 4,400 -1,560 Descending Indianapolis Center
08:04PM 39.8933 -82.6742 327° Northwest 277 319 3,700 -1,140 Descending Indianapolis Center
08:05PM 39.9586 -82.7308 326° Northwest 279 321 2,700 -660 Descending Indianapolis Center
08:06PM 39.9889 -82.7889 304° West 235 270 2,400 -720 Descending Indianapolis Center
08:07PM 39.9919 -82.8439 274° West 176 203 1,300 -660 Descending Indianapolis Center
08:08PM 39.9953 -82.8975 275° West 171 197 1,100 -240 Descending Indianapolis Center